Time,TemperatureF,DewpointF,PressureIn,WindDirection,WindDirectionDegrees,WindSpeedMPH,WindSpeedGustMPH,Humidity,HourlyPrecipIn,Conditions,Clouds,dailyrainin,SoftwareType,DateUTC
2013-02-21 00:01:00,39.2,36.0,29.54,NNW,338,0.4,0.9,88,0.00,,,0.00,WUHU216HW,2013-02-21 08:01:00,
2013-02-21 00:06:00,39.2,36.3,29.54,NNW,338,0.2,0.9,89,0.00,,,0.00,WUHU216HW,2013-02-21 08:06:00,
2013-02-21 00:11:00,39.2,36.3,29.54,NNW,338,0.0,0.9,89,0.00,,,0.00,WUHU216HW,2013-02-21 08:11:00,
2013-02-21 00:16:00,39.2,36.3,29.54,NNW,338,0.9,0.9,89,0.00,,,0.00,WUHU216HW,2013-02-21 08:16:00,
2013-02-21 00:21:00,39.4,36.5,29.54,NNW,338,0.2,0.9,89,0.00,,,0.00,WUHU216HW,2013-02-21 08:21:00,
2013-02-21 00:26:00,39.4,36.5,29.54,NNW,338,0.2,1.3,89,0.00,,,0.00,WUHU216HW,2013-02-21 08:26:00,
2013-02-21 00:31:00,39.4,36.2,29.54,NNE,23,0.0,1.3,88,0.00,,,0.00,WUHU216HW,2013-02-21 08:31:00,
2013-02-21 00:36:00,39.4,36.2,29.54,NNE,23,0.4,0.4,88,0.00,,,0.00,WUHU216HW,2013-02-21 08:36:00,
2013-02-21 00:41:00,39.4,36.2,29.54,NW,315,0.2,0.9,88,0.00,,,0.00,WUHU216HW,2013-02-21 08:41:00,
2013-02-21 00:46:00,39.4,36.2,29.54,North,0,0.0,0.9,88,0.00,,,0.00,WUHU216HW,2013-02-21 08:46:00,
2013-02-21 00:51:00,39.4,36.5,29.54,North,0,0.0,0.4,89,0.00,,,0.00,WUHU216HW,2013-02-21 08:51:00,
2013-02-21 00:56:00,39.6,36.6,29.54,NNW,338,1.6,1.6,89,0.00,,,0.00,WUHU216HW,2013-02-21 08:56:00,
2013-02-21 01:01:00,39.6,36.6,29.54,NW,315,0.0,1.8,89,0.00,,,0.00,WUHU216HW,2013-02-21 09:01:00,
2013-02-21 01:06:00,39.8,36.5,29.54,NNW,338,0.0,1.8,88,0.00,,,0.00,WUHU216HW,2013-02-21 09:06:00,
2013-02-21 01:11:00,39.8,36.8,29.54,NNE,23,0.9,1.8,89,0.00,,,0.00,WUHU216HW,2013-02-21 09:11:00,
2013-02-21 01:16:00,39.8,36.5,29.53,SE,135,0.0,1.8,88,0.00,,,0.00,WUHU216HW,2013-02-21 09:16:00,
2013-02-21 01:21:00,39.8,36.8,29.53,NNW,338,0.4,1.1,89,0.00,,,0.00,WUHU216HW,2013-02-21 09:21:00,
2013-02-21 01:26:00,39.8,36.8,29.53,North,0,0.4,0.7,89,0.00,,,0.00,WUHU216HW,2013-02-21 09:26:00,
2013-02-21 01:31:00,39.6,36.4,29.53,North,0,0.4,0.7,88,0.00,,,0.00,WUHU216HW,2013-02-21 09:31:00,
2013-02-21 01:36:00,39.8,36.8,29.53,NNW,338,0.4,1.6,89,0.00,,,0.00,WUHU216HW,2013-02-21 09:36:00,
2013-02-21 01:41:00,39.6,36.6,29.54,NW,315,0.4,1.6,89,0.00,,,0.00,WUHU216HW,2013-02-21 09:41:00,
2013-02-21 01:46:00,39.6,36.9,29.54,NW,315,3.1,3.1,90,0.00,,,0.00,WUHU216HW,2013-02-21 09:46:00,
2013-02-21 01:51:00,39.8,36.8,29.55,NNW,338,0.9,3.8,89,0.00,,,0.00,WUHU216HW,2013-02-21 09:51:00,
2013-02-21 01:56:00,39.8,36.8,29.54,SSE,158,0.0,3.8,89,0.00,,,0.00,WUHU216HW,2013-02-21 09:56:00,
2013-02-21 02:01:00,40.0,37.0,29.55,North,0,0.2,1.8,89,0.00,,,0.00,WUHU216HW,2013-02-21 10:01:00,
2013-02-21 02:06:00,40.0,37.0,29.54,NNW,338,0.0,1.8,89,0.00,,,0.00,WUHU216HW,2013-02-21 10:06:00,
2013-02-21 02:11:00,40.0,37.0,29.54,NW,315,2.0,3.8,89,0.00,,,0.00,WUHU216HW,2013-02-21 10:11:00,
2013-02-21 02:16:00,40.0,37.0,29.54,NW,315,0.2,3.8,89,0.00,,,0.00,WUHU216HW,2013-02-21 10:16:00,
2013-02-21 02:21:00,40.0,37.0,29.54,NNW,338,0.0,2.9,89,0.00,,,0.00,WUHU216HW,2013-02-21 10:21:00,
2013-02-21 02:26:00,40.0,37.0,29.55,NNW,338,0.2,1.8,89,0.00,,,0.00,WUHU216HW,2013-02-21 10:26:00,
2013-02-21 02:31:00,40.0,37.0,29.54,North,0,0.0,1.8,89,0.00,,,0.00,WUHU216HW,2013-02-21 10:31:00,
2013-02-21 02:36:00,40.0,37.0,29.55,NNW,338,0.0,2.7,89,0.00,,,0.00,WUHU216HW,2013-02-21 10:36:00,
2013-02-21 02:41:00,40.0,37.3,29.55,SSW,203,0.4,2.9,90,0.00,,,0.00,WUHU216HW,2013-02-21 10:41:00,
2013-02-21 02:46:00,40.0,37.3,29.55,NW,315,2.7,2.9,90,0.00,,,0.00,WUHU216HW,2013-02-21 10:46:00,
2013-02-21 02:51:00,40.0,37.3,29.55,East,90,2.9,2.9,90,0.00,,,0.00,WUHU216HW,2013-02-21 10:51:00,
2013-02-21 02:56:00,40.0,37.3,29.55,NE,45,0.4,2.9,90,0.00,,,0.00,WUHU216HW,2013-02-21 10:56:00,
2013-02-21 03:01:00,40.0,37.3,29.55,NW,315,2.5,2.9,90,0.00,,,0.00,WUHU216HW,2013-02-21 11:01:00,
2013-02-21 03:06:00,40.1,37.2,29.55,NW,315,4.7,4.7,89,0.00,,,0.00,WUHU216HW,2013-02-21 11:06:00,
2013-02-21 03:11:00,40.3,37.4,29.55,West,270,1.1,4.7,89,0.00,,,0.00,WUHU216HW,2013-02-21 11:11:00,
2013-02-21 03:16:00,40.1,37.2,29.54,NNW,338,0.9,4.7,89,0.00,,,0.00,WUHU216HW,2013-02-21 11:16:00,
2013-02-21 03:21:00,40.1,37.2,29.54,North,0,0.2,2.7,89,0.00,,,0.00,WUHU216HW,2013-02-21 11:21:00,
2013-02-21 03:26:00,40.1,37.2,29.54,NNW,338,1.1,3.4,89,0.00,,,0.00,WUHU216HW,2013-02-21 11:26:00,
2013-02-21 03:31:00,40.1,37.2,29.54,NW,315,2.5,3.4,89,0.00,,,0.00,WUHU216HW,2013-02-21 11:31:00,
2013-02-21 03:36:00,40.3,37.0,29.54,NNW,338,1.1,3.8,88,0.00,,,0.00,WUHU216HW,2013-02-21 11:36:00,
2013-02-21 03:41:00,40.3,37.0,29.54,NNW,338,0.4,3.8,88,0.00,,,0.00,WUHU216HW,2013-02-21 11:41:00,
2013-02-21 03:46:00,40.7,37.1,29.55,NNW,338,1.8,5.1,87,0.00,,,0.00,WUHU216HW,2013-02-21 11:46:00,
2013-02-21 03:51:00,40.7,37.4,29.55,North,0,2.0,5.1,88,0.00,,,0.00,WUHU216HW,2013-02-21 11:51:00,
2013-02-21 03:56:00,40.7,37.1,29.54,NNW,338,2.2,5.1,87,0.00,,,0.00,WUHU216HW,2013-02-21 11:56:00,
2013-02-21 04:01:00,40.7,37.1,29.55,West,270,1.3,5.1,87,0.00,,,0.00,WUHU216HW,2013-02-21 12:01:00,
2013-02-21 04:06:00,40.7,37.1,29.55,North,0,3.4,3.4,87,0.00,,,0.00,WUHU216HW,2013-02-21 12:06:00,
2013-02-21 04:11:00,40.7,37.1,29.54,NW,315,3.6,3.6,87,0.00,,,0.00,WUHU216HW,2013-02-21 12:11:00,
2013-02-21 04:16:00,40.7,37.4,29.54,West,270,1.1,3.8,88,0.00,,,0.00,WUHU216HW,2013-02-21 12:16:00,
2013-02-21 04:21:00,40.7,37.4,29.55,NW,315,1.8,3.8,88,0.00,,,0.00,WUHU216HW,2013-02-21 12:21:00,
2013-02-21 04:26:00,40.7,37.4,29.55,NW,315,1.8,3.4,88,0.00,,,0.00,WUHU216HW,2013-02-21 12:26:00,
2013-02-21 04:31:00,40.7,37.4,29.55,NNW,338,1.6,3.4,88,0.00,,,0.00,WUHU216HW,2013-02-21 12:31:00,
2013-02-21 04:36:00,40.7,37.1,29.55,NNW,338,2.5,3.4,87,0.00,,,0.00,WUHU216HW,2013-02-21 12:36:00,
2013-02-21 04:41:00,40.7,37.1,29.54,NNW,338,1.3,3.4,87,0.00,,,0.00,WUHU216HW,2013-02-21 12:41:00,
2013-02-21 04:46:00,40.9,37.3,29.54,North,0,0.4,2.2,87,0.00,,,0.00,WUHU216HW,2013-02-21 12:46:00,
2013-02-21 04:51:00,40.7,37.4,29.54,NW,315,0.4,2.2,88,0.01,,,0.01,WUHU216HW,2013-02-21 12:51:00,
2013-02-21 04:56:00,40.9,37.3,29.54,West,270,1.1,2.2,87,0.01,,,0.01,WUHU216HW,2013-02-21 12:56:00,
2013-02-21 05:01:00,40.7,37.4,29.54,North,0,0.0,1.3,88,0.01,,,0.01,WUHU216HW,2013-02-21 13:01:00,
2013-02-21 05:06:00,40.7,37.4,29.55,North,0,0.4,1.3,88,0.01,,,0.01,WUHU216HW,2013-02-21 13:06:00,
2013-02-21 05:11:00,40.7,37.4,29.55,NW,315,0.9,1.3,88,0.01,,,0.01,WUHU216HW,2013-02-21 13:11:00,
2013-02-21 05:16:00,40.9,37.3,29.55,North,0,0.2,1.3,87,0.01,,,0.01,WUHU216HW,2013-02-21 13:16:00,
2013-02-21 05:21:00,40.9,37.3,29.55,NNW,338,0.0,1.3,87,0.01,,,0.01,WUHU216HW,2013-02-21 13:21:00,
2013-02-21 05:26:00,41.0,37.5,29.55,NW,315,0.0,1.8,87,0.01,,,0.01,WUHU216HW,2013-02-21 13:26:00,
2013-02-21 05:31:00,41.0,37.5,29.55,NNW,338,1.3,1.8,87,0.01,,,0.01,WUHU216HW,2013-02-21 13:31:00,
2013-02-21 05:36:00,41.0,37.5,29.55,NNW,338,0.9,1.6,87,0.01,,,0.01,WUHU216HW,2013-02-21 13:36:00,
2013-02-21 05:41:00,41.0,37.1,29.55,NW,315,0.4,1.3,86,0.01,,,0.01,WUHU216HW,2013-02-21 13:41:00,
2013-02-21 05:46:00,41.0,36.8,29.55,North,0,2.5,3.8,85,0.01,,,0.01,WUHU216HW,2013-02-21 13:46:00,
2013-02-21 05:51:00,41.2,36.7,29.55,NNW,338,2.0,4.7,84,0.00,,,0.01,WUHU216HW,2013-02-21 13:51:00,
2013-02-21 05:56:00,41.4,36.5,29.55,NW,315,2.2,4.7,83,0.00,,,0.01,WUHU216HW,2013-02-21 13:56:00,
2013-02-21 06:01:00,41.6,36.7,29.54,NNW,338,2.5,5.4,83,0.00,,,0.01,WUHU216HW,2013-02-21 14:01:00,
2013-02-21 06:06:00,41.6,36.5,29.54,NNW,338,1.3,5.4,82,0.00,,,0.01,WUHU216HW,2013-02-21 14:06:00,
2013-02-21 06:11:00,41.6,36.5,29.54,NNW,338,2.7,4.7,82,0.00,,,0.01,WUHU216HW,2013-02-21 14:11:00,
2013-02-21 06:16:00,41.8,36.6,29.54,NNW,338,4.0,7.6,82,0.00,,,0.01,WUHU216HW,2013-02-21 14:16:00,
2013-02-21 06:21:00,41.8,36.6,29.54,North,0,2.9,7.6,82,0.00,,,0.01,WUHU216HW,2013-02-21 14:21:00,
2013-02-21 06:26:00,41.6,36.5,29.54,NW,315,5.1,5.1,82,0.00,,,0.01,WUHU216HW,2013-02-21 14:26:00,
2013-02-21 06:31:00,41.6,36.5,29.54,NW,315,2.7,5.6,82,0.00,,,0.01,WUHU216HW,2013-02-21 14:31:00,
2013-02-21 06:36:00,41.6,36.5,29.54,NNW,338,1.1,5.6,82,0.00,,,0.01,WUHU216HW,2013-02-21 14:36:00,
2013-02-21 06:41:00,41.8,36.3,29.54,NW,315,5.4,5.6,81,0.00,,,0.01,WUHU216HW,2013-02-21 14:41:00,
2013-02-21 06:46:00,41.8,36.6,29.55,NNW,338,2.0,9.8,82,0.00,,,0.01,WUHU216HW,2013-02-21 14:46:00,
2013-02-21 06:51:00,41.8,36.6,29.55,NW,315,2.5,9.8,82,0.00,,,0.01,WUHU216HW,2013-02-21 14:51:00,
2013-02-21 06:56:00,41.8,36.6,29.55,NNW,338,2.5,7.6,82,0.00,,,0.01,WUHU216HW,2013-02-21 14:56:00,
2013-02-21 07:01:00,41.6,36.5,29.56,NE,45,1.3,7.6,82,0.00,,,0.01,WUHU216HW,2013-02-21 15:01:00,
2013-02-21 07:06:00,41.6,36.5,29.56,NNW,338,2.2,6.5,82,0.00,,,0.01,WUHU216HW,2013-02-21 15:06:00,
2013-02-21 07:11:00,41.6,36.5,29.56,NW,315,1.6,6.5,82,0.00,,,0.01,WUHU216HW,2013-02-21 15:11:00,
2013-02-21 07:16:00,41.6,36.1,29.57,WNW,293,4.3,5.6,81,0.00,,,0.01,WUHU216HW,2013-02-21 15:16:00,
2013-02-21 07:21:00,41.6,36.1,29.57,WNW,293,3.4,4.7,81,0.00,,,0.01,WUHU216HW,2013-02-21 15:21:00,
2013-02-21 07:26:00,41.6,36.1,29.57,NW,315,4.0,4.7,81,0.00,,,0.01,WUHU216HW,2013-02-21 15:26:00,
2013-02-21 07:31:00,41.4,36.3,29.57,NNW,338,3.8,6.9,82,0.00,,,0.01,WUHU216HW,2013-02-21 15:31:00,
2013-02-21 07:36:00,41.4,36.3,29.57,NW,315,1.6,6.9,82,0.00,,,0.01,WUHU216HW,2013-02-21 15:36:00,
2013-02-21 07:41:00,41.4,36.3,29.57,NW,315,1.8,4.0,82,0.00,,,0.01,WUHU216HW,2013-02-21 15:41:00,
2013-02-21 07:46:00,41.2,36.1,29.57,West,270,2.9,3.1,82,0.00,,,0.01,WUHU216HW,2013-02-21 15:46:00,
2013-02-21 07:51:00,41.4,36.3,29.58,West,270,3.4,6.9,82,0.00,,,0.01,WUHU216HW,2013-02-21 15:51:00,
2013-02-21 07:56:00,41.4,36.3,29.58,NNW,338,4.0,6.9,82,0.00,,,0.01,WUHU216HW,2013-02-21 15:56:00,
2013-02-21 08:01:00,41.6,36.5,29.59,North,0,0.9,6.9,82,0.00,,,0.01,WUHU216HW,2013-02-21 16:01:00,
2013-02-21 08:06:00,41.8,36.3,29.58,NNW,338,2.5,6.9,81,0.00,,,0.01,WUHU216HW,2013-02-21 16:06:00,
2013-02-21 08:11:00,41.8,36.3,29.58,NNW,338,3.6,5.6,81,0.00,,,0.01,WUHU216HW,2013-02-21 16:11:00,
2013-02-21 08:16:00,41.9,36.5,29.58,NW,315,6.3,7.6,81,0.00,,,0.01,WUHU216HW,2013-02-21 16:16:00,
2013-02-21 08:21:00,41.9,37.1,29.58,NE,45,2.5,7.6,83,0.00,,,0.01,WUHU216HW,2013-02-21 16:21:00,
2013-02-21 08:26:00,42.1,37.3,29.59,NW,315,1.1,10.5,83,0.00,,,0.01,WUHU216HW,2013-02-21 16:26:00,
2013-02-21 08:31:00,42.3,36.8,29.58,NNW,338,5.8,10.5,81,0.00,,,0.01,WUHU216HW,2013-02-21 16:31:00,
2013-02-21 08:36:00,42.5,37.0,29.58,WNW,293,4.5,6.3,81,0.00,,,0.01,WUHU216HW,2013-02-21 16:36:00,
2013-02-21 08:41:00,42.5,37.4,29.58,NNW,338,4.0,6.3,82,0.00,,,0.01,WUHU216HW,2013-02-21 16:41:00,
2013-02-21 08:46:00,42.3,36.8,29.59,NW,315,1.3,5.4,81,0.00,,,0.01,WUHU216HW,2013-02-21 16:46:00,
2013-02-21 08:51:00,42.3,37.2,29.59,West,270,0.9,5.8,82,0.00,,,0.01,WUHU216HW,2013-02-21 16:51:00,
2013-02-21 08:56:00,42.1,36.6,29.59,West,270,2.0,5.8,81,0.00,,,0.01,WUHU216HW,2013-02-21 16:56:00,
2013-02-21 09:01:00,42.1,36.6,29.59,NNW,338,0.0,6.3,81,0.00,,,0.01,WUHU216HW,2013-02-21 17:01:00,
2013-02-21 09:06:00,42.5,37.0,29.58,ESE,113,2.2,6.3,81,0.00,,,0.01,WUHU216HW,2013-02-21 17:06:00,
2013-02-21 09:11:00,42.8,37.7,29.59,North,0,1.6,3.6,82,0.00,,,0.01,WUHU216HW,2013-02-21 17:11:00,
2013-02-21 09:16:00,42.7,36.9,29.58,NW,315,2.5,6.7,80,0.00,,,0.01,WUHU216HW,2013-02-21 17:16:00,
2013-02-21 09:21:00,42.7,36.9,29.59,NW,315,3.4,6.7,80,0.00,,,0.01,WUHU216HW,2013-02-21 17:21:00,
2013-02-21 09:26:00,42.7,36.9,29.58,West,270,6.5,6.5,80,0.00,,,0.01,WUHU216HW,2013-02-21 17:26:00,
2013-02-21 09:31:00,42.8,37.4,29.59,NNW,338,2.0,6.7,81,0.00,,,0.01,WUHU216HW,2013-02-21 17:31:00,
2013-02-21 09:36:00,43.2,37.4,29.58,NW,315,1.1,6.7,80,0.00,,,0.01,WUHU216HW,2013-02-21 17:36:00,
2013-02-21 09:41:00,43.6,38.1,29.59,NW,315,0.4,7.6,81,0.00,,,0.01,WUHU216HW,2013-02-21 17:41:00,
2013-02-21 09:46:00,44.3,38.2,29.59,SW,225,2.5,7.6,79,0.00,,,0.01,WUHU216HW,2013-02-21 17:46:00,
2013-02-21 09:51:00,45.0,38.5,29.59,NNW,338,2.7,8.9,78,0.00,,,0.01,WUHU216HW,2013-02-21 17:51:00,
2013-02-21 09:56:00,45.0,38.3,29.59,NNW,338,2.0,8.9,77,0.00,,,0.01,WUHU216HW,2013-02-21 17:56:00,
2013-02-21 10:01:00,44.8,38.1,29.59,SSW,203,0.4,6.0,77,0.00,,,0.01,WUHU216HW,2013-02-21 18:01:00,
2013-02-21 10:06:00,45.0,37.5,29.59,WNW,293,5.4,5.8,75,0.00,,,0.01,WUHU216HW,2013-02-21 18:06:00,
2013-02-21 10:11:00,45.0,37.2,29.59,NW,315,1.8,6.0,74,0.00,,,0.01,WUHU216HW,2013-02-21 18:11:00,
2013-02-21 10:16:00,45.5,38.4,29.59,NW,315,4.0,6.0,76,0.00,,,0.01,WUHU216HW,2013-02-21 18:16:00,
2013-02-21 10:21:00,45.5,37.1,29.59,WSW,248,3.6,7.6,72,0.00,,,0.01,WUHU216HW,2013-02-21 18:21:00,
2013-02-21 10:26:00,45.5,37.4,29.60,NW,315,4.7,7.6,73,0.00,,,0.01,WUHU216HW,2013-02-21 18:26:00,
2013-02-21 10:31:00,45.0,36.8,29.59,NNW,338,5.6,10.3,73,0.00,,,0.01,WUHU216HW,2013-02-21 18:31:00,
2013-02-21 10:36:00,44.8,37.0,29.59,NW,315,2.7,10.3,74,0.00,,,0.01,WUHU216HW,2013-02-21 18:36:00,
2013-02-21 10:41:00,44.6,36.8,29.59,WNW,293,5.6,11.9,74,0.00,,,0.01,WUHU216HW,2013-02-21 18:41:00,
2013-02-21 10:46:00,44.8,36.6,29.59,West,270,4.9,11.9,73,0.00,,,0.01,WUHU216HW,2013-02-21 18:46:00,
2013-02-21 10:51:00,44.8,36.6,29.59,NW,315,2.0,7.6,73,0.00,,,0.01,WUHU216HW,2013-02-21 18:51:00,
2013-02-21 10:56:00,44.8,36.4,29.59,NNW,338,2.0,7.4,72,0.00,,,0.01,WUHU216HW,2013-02-21 18:56:00,
2013-02-21 11:01:00,45.0,36.2,29.59,NNW,338,3.6,7.4,71,0.00,,,0.01,WUHU216HW,2013-02-21 19:01:00,
2013-02-21 11:06:00,45.2,36.4,29.59,NW,315,2.0,9.2,71,0.00,,,0.01,WUHU216HW,2013-02-21 19:06:00,
2013-02-21 11:11:00,45.2,36.4,29.59,NNW,338,2.2,9.2,71,0.00,,,0.01,WUHU216HW,2013-02-21 19:11:00,
2013-02-21 11:16:00,45.2,36.7,29.59,NW,315,3.6,6.9,72,0.00,,,0.01,WUHU216HW,2013-02-21 19:16:00,
2013-02-21 11:21:00,44.8,36.4,29.59,WNW,293,1.1,6.7,72,0.00,,,0.01,WUHU216HW,2013-02-21 19:21:00,
2013-02-21 11:26:00,45.0,36.8,29.59,NW,315,3.1,6.7,73,0.00,,,0.01,WUHU216HW,2013-02-21 19:26:00,
2013-02-21 11:31:00,45.0,36.8,29.58,West,270,2.9,6.3,73,0.00,,,0.01,WUHU216HW,2013-02-21 19:31:00,
2013-02-21 11:36:00,45.0,36.6,29.58,SW,225,2.2,6.5,72,0.00,,,0.01,WUHU216HW,2013-02-21 19:36:00,
2013-02-21 11:41:00,45.2,36.7,29.59,NNW,338,1.3,6.5,72,0.00,,,0.01,WUHU216HW,2013-02-21 19:41:00,
2013-02-21 11:46:00,45.2,37.0,29.58,NNW,338,1.3,5.4,73,0.00,,,0.01,WUHU216HW,2013-02-21 19:46:00,
2013-02-21 11:51:00,45.2,37.0,29.58,North,0,0.9,5.4,73,0.00,,,0.01,WUHU216HW,2013-02-21 19:51:00,
2013-02-21 11:56:00,45.4,37.2,29.58,NNW,338,2.0,4.7,73,0.00,,,0.01,WUHU216HW,2013-02-21 19:56:00,
2013-02-21 12:01:00,45.4,36.9,29.58,NW,315,2.5,4.7,72,0.00,,,0.01,WUHU216HW,2013-02-21 20:01:00,
2013-02-21 12:06:00,45.2,37.0,29.58,WNW,293,3.4,6.9,73,0.00,,,0.01,WUHU216HW,2013-02-21 20:06:00,
2013-02-21 12:11:00,45.2,37.4,29.58,NNW,338,4.5,6.9,74,0.00,,,0.01,WUHU216HW,2013-02-21 20:11:00,
2013-02-21 12:16:00,45.2,37.4,29.58,WNW,293,0.9,4.7,74,0.00,,,0.01,WUHU216HW,2013-02-21 20:16:00,
2013-02-21 12:21:00,45.2,37.7,29.58,NW,315,4.5,4.7,75,0.00,,,0.01,WUHU216HW,2013-02-21 20:21:00,
2013-02-21 12:26:00,45.0,37.5,29.58,NNW,338,1.6,4.5,75,0.00,,,0.01,WUHU216HW,2013-02-21 20:26:00,
2013-02-21 12:31:00,45.2,37.7,29.58,WSW,248,0.2,4.5,75,0.00,,,0.01,WUHU216HW,2013-02-21 20:31:00,
2013-02-21 12:36:00,45.5,38.1,29.57,NNE,23,1.8,3.4,75,0.00,,,0.01,WUHU216HW,2013-02-21 20:36:00,
2013-02-21 12:41:00,45.5,38.1,29.57,SSW,203,0.4,2.5,75,0.00,,,0.01,WUHU216HW,2013-02-21 20:41:00,
2013-02-21 12:46:00,45.4,37.9,29.57,NNE,23,0.2,2.5,75,0.00,,,0.01,WUHU216HW,2013-02-21 20:46:00,
2013-02-21 12:51:00,45.4,37.9,29.57,NNE,23,0.2,3.1,75,0.00,,,0.01,WUHU216HW,2013-02-21 20:51:00,
2013-02-21 12:56:00,45.5,38.4,29.57,ENE,68,0.9,3.1,76,0.00,,,0.01,WUHU216HW,2013-02-21 20:56:00,
2013-02-21 13:01:00,45.5,38.4,29.57,SSE,158,0.0,2.0,76,0.00,,,0.01,WUHU216HW,2013-02-21 21:01:00,
2013-02-21 13:06:00,45.5,38.4,29.56,NNW,338,0.0,3.4,76,0.00,,,0.01,WUHU216HW,2013-02-21 21:06:00,
2013-02-21 13:11:00,45.5,38.8,29.56,NNW,338,0.9,3.4,77,0.00,,,0.01,WUHU216HW,2013-02-21 21:11:00,
2013-02-21 13:16:00,45.4,37.9,29.56,NW,315,2.5,4.9,75,0.00,,,0.01,WUHU216HW,2013-02-21 21:16:00,
2013-02-21 13:21:00,45.2,38.1,29.56,North,0,1.1,4.9,76,0.00,,,0.01,WUHU216HW,2013-02-21 21:21:00,
2013-02-21 13:26:00,45.4,38.3,29.56,WNW,293,1.6,4.7,76,0.00,,,0.01,WUHU216HW,2013-02-21 21:26:00,
2013-02-21 13:31:00,45.4,37.9,29.56,NW,315,2.2,4.7,75,0.00,,,0.01,WUHU216HW,2013-02-21 21:31:00,
2013-02-21 13:36:00,45.5,38.4,29.56,NW,315,3.8,6.9,76,0.00,,,0.01,WUHU216HW,2013-02-21 21:36:00,
2013-02-21 13:41:00,45.4,37.5,29.56,West,270,1.8,7.2,74,0.00,,,0.01,WUHU216HW,2013-02-21 21:41:00,
2013-02-21 13:46:00,45.5,38.4,29.57,North,0,2.2,7.2,76,0.00,,,0.01,WUHU216HW,2013-02-21 21:46:00,
2013-02-21 13:51:00,45.7,38.3,29.56,WNW,293,0.4,4.7,75,0.00,,,0.01,WUHU216HW,2013-02-21 21:51:00,
2013-02-21 13:56:00,45.7,38.3,29.56,NW,315,3.4,4.7,75,0.00,,,0.01,WUHU216HW,2013-02-21 21:56:00,
2013-02-21 14:01:00,45.7,38.3,29.56,West,270,0.4,3.4,75,0.00,,,0.01,WUHU216HW,2013-02-21 22:01:00,
2013-02-21 14:06:00,45.7,38.3,29.56,NNW,338,1.8,4.9,75,0.00,,,0.01,WUHU216HW,2013-02-21 22:06:00,
2013-02-21 14:11:00,45.7,37.9,29.56,WSW,248,3.8,6.9,74,0.00,,,0.01,WUHU216HW,2013-02-21 22:11:00,
2013-02-21 14:16:00,45.5,38.1,29.56,NW,315,4.3,6.9,75,0.00,,,0.01,WUHU216HW,2013-02-21 22:16:00,
2013-02-21 14:21:00,45.5,38.1,29.56,NNW,338,3.1,6.3,75,0.00,,,0.01,WUHU216HW,2013-02-21 22:21:00,
2013-02-21 14:26:00,45.5,38.1,29.56,NW,315,2.0,4.5,75,0.00,,,0.01,WUHU216HW,2013-02-21 22:26:00,
2013-02-21 14:31:00,45.5,37.7,29.56,WNW,293,3.4,4.0,74,0.00,,,0.01,WUHU216HW,2013-02-21 22:31:00,
2013-02-21 14:36:00,45.5,37.1,29.56,North,0,1.8,6.3,72,0.00,,,0.01,WUHU216HW,2013-02-21 22:36:00,
2013-02-21 14:41:00,45.7,36.2,29.56,West,270,5.4,6.3,69,0.00,,,0.01,WUHU216HW,2013-02-21 22:41:00,
2013-02-21 14:46:00,45.7,36.2,29.56,North,0,1.8,7.4,69,0.00,,,0.01,WUHU216HW,2013-02-21 22:46:00,
2013-02-21 14:51:00,45.7,35.0,29.56,NNW,338,3.1,7.6,66,0.00,,,0.01,WUHU216HW,2013-02-21 22:51:00,
2013-02-21 14:56:00,45.7,35.0,29.56,NW,315,4.7,7.6,66,0.00,,,0.01,WUHU216HW,2013-02-21 22:56:00,
2013-02-21 15:01:00,45.7,35.0,29.56,NW,315,3.4,6.3,66,0.00,,,0.01,WUHU216HW,2013-02-21 23:01:00,
2013-02-21 15:06:00,45.5,35.2,29.56,NNW,338,2.5,7.2,67,0.00,,,0.01,WUHU216HW,2013-02-21 23:06:00,
2013-02-21 15:11:00,45.7,35.4,29.56,NW,315,3.4,7.2,67,0.00,,,0.01,WUHU216HW,2013-02-21 23:11:00,
2013-02-21 15:16:00,45.5,35.2,29.56,NW,315,2.5,6.9,67,0.00,,,0.01,WUHU216HW,2013-02-21 23:16:00,
2013-02-21 15:21:00,45.4,35.0,29.56,North,0,1.6,7.4,67,0.00,,,0.01,WUHU216HW,2013-02-21 23:21:00,
2013-02-21 15:26:00,45.2,34.8,29.55,NW,315,3.1,7.4,67,0.00,,,0.01,WUHU216HW,2013-02-21 23:26:00,
2013-02-21 15:31:00,45.2,35.2,29.55,NW,315,2.5,8.5,68,0.00,,,0.01,WUHU216HW,2013-02-21 23:31:00,
2013-02-21 15:36:00,45.4,35.4,29.55,WNW,293,2.0,8.5,68,0.00,,,0.01,WUHU216HW,2013-02-21 23:36:00,
2013-02-21 15:41:00,45.2,34.8,29.56,WNW,293,3.4,6.5,67,0.00,,,0.01,WUHU216HW,2013-02-21 23:41:00,
2013-02-21 15:46:00,45.0,35.1,29.56,WNW,293,1.6,6.5,68,0.00,,,0.01,WUHU216HW,2013-02-21 23:46:00,
2013-02-21 15:51:00,45.0,35.1,29.56,WNW,293,2.2,5.8,68,0.00,,,0.01,WUHU216HW,2013-02-21 23:51:00,
2013-02-21 15:56:00,44.8,35.6,29.55,NW,315,3.1,6.0,70,0.00,,,0.01,WUHU216HW,2013-02-21 23:56:00,
2013-02-21 16:01:00,44.6,35.8,29.55,West,270,1.6,6.0,71,0.00,,,0.01,WUHU216HW,2013-02-22 00:01:00,
2013-02-21 16:06:00,44.6,36.2,29.55,NW,315,1.3,5.6,72,0.00,,,0.01,WUHU216HW,2013-02-22 00:06:00,
2013-02-21 16:11:00,44.5,36.4,29.55,WNW,293,3.6,4.5,73,0.00,,,0.01,WUHU216HW,2013-02-22 00:11:00,
2013-02-21 16:16:00,44.3,36.5,29.55,NW,315,0.9,4.5,74,0.00,,,0.01,WUHU216HW,2013-02-22 00:16:00,
2013-02-21 16:21:00,44.3,36.8,29.55,WNW,293,2.7,4.0,75,0.00,,,0.01,WUHU216HW,2013-02-22 00:21:00,
2013-02-21 16:26:00,44.1,36.6,29.56,NW,315,4.5,4.5,75,0.00,,,0.01,WUHU216HW,2013-02-22 00:26:00,
2013-02-21 16:31:00,43.9,36.8,29.56,NW,315,2.5,4.5,76,0.00,,,0.01,WUHU216HW,2013-02-22 00:31:00,
2013-02-21 16:36:00,43.7,36.6,29.56,North,0,2.5,4.5,76,0.00,,,0.01,WUHU216HW,2013-02-22 00:36:00,
2013-02-21 16:41:00,43.6,36.8,29.55,NW,315,1.8,4.0,77,0.00,,,0.01,WUHU216HW,2013-02-22 00:41:00,
2013-02-21 16:46:00,43.6,36.8,29.56,North,0,0.4,4.0,77,0.00,,,0.01,WUHU216HW,2013-02-22 00:46:00,
2013-02-21 16:51:00,43.4,36.6,29.55,North,0,0.2,3.4,77,0.00,,,0.01,WUHU216HW,2013-02-22 00:51:00,
2013-02-21 16:56:00,43.2,36.8,29.55,ESE,113,0.0,1.3,78,0.00,,,0.01,WUHU216HW,2013-02-22 00:56:00,
2013-02-21 17:01:00,43.2,37.1,29.55,SSE,158,0.4,1.3,79,0.00,,,0.01,WUHU216HW,2013-02-22 01:01:00,
2013-02-21 17:06:00,43.0,36.9,29.55,East,90,0.0,1.3,79,0.00,,,0.01,WUHU216HW,2013-02-22 01:06:00,
2013-02-21 17:11:00,43.0,36.6,29.55,NNW,338,0.0,0.4,78,0.00,,,0.01,WUHU216HW,2013-02-22 01:11:00,
2013-02-21 17:16:00,43.2,37.1,29.56,NNE,23,0.2,1.6,79,0.00,,,0.01,WUHU216HW,2013-02-22 01:16:00,
2013-02-21 17:21:00,43.2,37.4,29.56,NNW,338,1.6,2.2,80,0.00,,,0.01,WUHU216HW,2013-02-22 01:21:00,
2013-02-21 17:26:00,43.2,37.1,29.55,SE,135,0.9,2.2,79,0.00,,,0.01,WUHU216HW,2013-02-22 01:26:00,
2013-02-21 17:31:00,43.0,36.9,29.55,East,90,0.0,1.8,79,0.00,,,0.01,WUHU216HW,2013-02-22 01:31:00,
2013-02-21 17:36:00,43.0,36.9,29.56,East,90,0.0,1.3,79,0.00,,,0.01,WUHU216HW,2013-02-22 01:36:00,
2013-02-21 17:41:00,43.0,36.9,29.56,NNW,338,0.2,1.8,79,0.00,,,0.01,WUHU216HW,2013-02-22 01:41:00,
2013-02-21 17:46:00,43.0,37.5,29.56,WNW,293,0.9,1.8,81,0.00,,,0.01,WUHU216HW,2013-02-22 01:46:00,
2013-02-21 17:51:00,42.8,36.7,29.56,ESE,113,0.4,1.6,79,0.00,,,0.01,WUHU216HW,2013-02-22 01:51:00,
2013-02-21 17:56:00,42.8,36.7,29.56,NE,45,0.4,1.6,79,0.00,,,0.01,WUHU216HW,2013-02-22 01:56:00,
2013-02-21 18:01:00,42.8,37.1,29.56,NNW,338,0.4,1.1,80,0.00,,,0.01,WUHU216HW,2013-02-22 02:01:00,
2013-02-21 18:06:00,42.8,36.7,29.56,NNW,338,0.4,1.1,79,0.00,,,0.01,WUHU216HW,2013-02-22 02:06:00,
2013-02-21 18:11:00,42.8,36.7,29.56,NNW,338,0.0,0.4,79,0.00,,,0.01,WUHU216HW,2013-02-22 02:11:00,
2013-02-21 18:16:00,42.8,36.7,29.56,NNW,338,0.0,0.4,79,0.00,,,0.01,WUHU216HW,2013-02-22 02:16:00,
2013-02-21 18:21:00,42.8,37.1,29.57,East,90,0.0,1.1,80,0.00,,,0.01,WUHU216HW,2013-02-22 02:21:00,
2013-02-21 18:26:00,42.7,36.9,29.57,East,90,0.0,1.1,80,0.00,,,0.01,WUHU216HW,2013-02-22 02:26:00,
2013-02-21 18:31:00,42.7,37.5,29.57,NW,315,1.6,1.8,82,0.00,,,0.01,WUHU216HW,2013-02-22 02:31:00,
2013-02-21 18:36:00,42.7,37.2,29.57,NW,315,0.0,1.8,81,0.00,,,0.01,WUHU216HW,2013-02-22 02:36:00,
2013-02-21 18:41:00,42.7,37.2,29.57,NNW,338,0.4,1.1,81,0.00,,,0.01,WUHU216HW,2013-02-22 02:41:00,
2013-02-21 18:46:00,42.7,37.5,29.57,NNW,338,0.7,1.3,82,0.00,,,0.01,WUHU216HW,2013-02-22 02:46:00,
2013-02-21 18:51:00,42.5,37.0,29.57,NNW,338,0.2,2.5,81,0.00,,,0.01,WUHU216HW,2013-02-22 02:51:00,
2013-02-21 18:56:00,42.5,37.0,29.58,NNW,338,1.1,2.5,81,0.00,,,0.01,WUHU216HW,2013-02-22 02:56:00,
2013-02-21 19:01:00,42.5,37.4,29.58,WNW,293,1.6,2.2,82,0.00,,,0.01,WUHU216HW,2013-02-22 03:01:00,
2013-02-21 19:06:00,42.5,37.0,29.58,North,0,0.4,2.2,81,0.00,,,0.01,WUHU216HW,2013-02-22 03:06:00,
2013-02-21 19:11:00,42.5,37.4,29.58,NW,315,0.0,1.1,82,0.00,,,0.01,WUHU216HW,2013-02-22 03:11:00,
2013-02-21 19:16:00,42.5,37.4,29.57,NNW,338,0.0,0.9,82,0.00,,,0.01,WUHU216HW,2013-02-22 03:16:00,
2013-02-21 19:21:00,42.3,37.2,29.58,North,0,0.0,0.7,82,0.00,,,0.01,WUHU216HW,2013-02-22 03:21:00,
2013-02-21 19:26:00,42.5,37.6,29.58,NNW,338,0.4,0.9,83,0.00,,,0.01,WUHU216HW,2013-02-22 03:26:00,
2013-02-21 19:31:00,42.3,37.8,29.58,NNW,338,0.2,1.3,84,0.00,,,0.01,WUHU216HW,2013-02-22 03:31:00,
2013-02-21 19:36:00,42.3,38.1,29.58,NW,315,1.3,2.7,85,0.00,,,0.01,WUHU216HW,2013-02-22 03:36:00,
2013-02-21 19:41:00,42.1,37.9,29.58,NNE,23,0.7,3.4,85,0.00,,,0.01,WUHU216HW,2013-02-22 03:41:00,
2013-02-21 19:46:00,42.1,37.6,29.58,North,0,1.1,3.4,84,0.01,,,0.02,WUHU216HW,2013-02-22 03:46:00,
2013-02-21 19:51:00,42.1,37.9,29.58,NNW,338,0.2,1.1,85,0.01,,,0.02,WUHU216HW,2013-02-22 03:51:00,
2013-02-21 19:56:00,42.1,37.9,29.58,North,0,0.2,1.1,85,0.01,,,0.02,WUHU216HW,2013-02-22 03:56:00,
2013-02-21 20:01:00,42.1,38.2,29.58,North,0,0.2,1.3,86,0.01,,,0.02,WUHU216HW,2013-02-22 04:01:00,
2013-02-21 20:06:00,41.9,37.7,29.57,North,0,0.0,1.3,85,0.01,,,0.02,WUHU216HW,2013-02-22 04:06:00,
2013-02-21 20:11:00,41.9,38.0,29.57,NNW,338,0.7,1.1,86,0.01,,,0.02,WUHU216HW,2013-02-22 04:11:00,
2013-02-21 20:16:00,41.9,38.0,29.57,North,0,0.2,1.6,86,0.01,,,0.02,WUHU216HW,2013-02-22 04:16:00,
2013-02-21 20:21:00,41.9,37.7,29.57,North,0,0.4,1.6,85,0.01,,,0.02,WUHU216HW,2013-02-22 04:21:00,
2013-02-21 20:26:00,41.9,38.4,29.57,North,0,1.8,1.8,87,0.01,,,0.02,WUHU216HW,2013-02-22 04:26:00,
2013-02-21 20:31:00,41.8,37.8,29.58,NW,315,2.0,2.0,86,0.01,,,0.02,WUHU216HW,2013-02-22 04:31:00,
2013-02-21 20:36:00,41.9,38.0,29.58,NNW,338,1.8,2.0,86,0.01,,,0.02,WUHU216HW,2013-02-22 04:36:00,
2013-02-21 20:41:00,41.8,38.2,29.58,North,0,0.2,1.8,87,0.00,,,0.02,WUHU216HW,2013-02-22 04:41:00,
2013-02-21 20:46:00,41.8,38.2,29.58,NNW,338,0.7,1.8,87,0.00,,,0.02,WUHU216HW,2013-02-22 04:46:00,
2013-02-21 20:51:00,41.8,38.2,29.58,NNW,338,0.7,1.3,87,0.00,,,0.02,WUHU216HW,2013-02-22 04:51:00,
2013-02-21 20:56:00,41.8,38.2,29.58,NNW,338,0.9,1.1,87,0.00,,,0.02,WUHU216HW,2013-02-22 04:56:00,
2013-02-21 21:00:00,41.8,38.2,29.58,NNW,338,0.4,1.8,87,0.00,,,0.02,WUHU216HW,2013-02-22 05:00:00,
2013-02-21 21:01:00,41.8,38.2,29.58,NNW,338,1.1,2.2,87,0.00,,,0.02,WUHU216HW,2013-02-22 05:01:00,
2013-02-21 21:02:00,41.8,38.2,29.58,NNW,338,1.1,2.2,87,0.00,,,0.02,WUHU216HW,2013-02-22 05:02:00,
2013-02-21 21:07:00,41.8,38.2,29.58,NNW,338,1.1,2.2,87,0.00,,,0.02,WUHU216HW,2013-02-22 05:07:00,
2013-02-21 21:12:00,41.8,38.2,29.58,NNW,338,1.6,2.0,87,0.00,,,0.02,WUHU216HW,2013-02-22 05:12:00,
2013-02-21 21:17:00,41.6,38.0,29.58,NW,315,1.6,2.5,87,0.00,,,0.02,WUHU216HW,2013-02-22 05:17:00,
2013-02-21 21:22:00,41.6,38.0,29.58,NNW,338,2.7,3.1,87,0.00,,,0.02,WUHU216HW,2013-02-22 05:22:00,
2013-02-21 21:27:00,41.6,38.0,29.58,North,0,1.8,3.1,87,0.00,,,0.02,WUHU216HW,2013-02-22 05:27:00,
2013-02-21 21:32:00,41.6,38.0,29.58,NNW,338,1.3,2.9,87,0.00,,,0.02,WUHU216HW,2013-02-22 05:32:00,
2013-02-21 21:37:00,41.4,38.1,29.58,NNW,338,0.9,2.7,88,0.00,,,0.02,WUHU216HW,2013-02-22 05:37:00,
2013-02-21 21:42:00,41.4,38.1,29.58,NW,315,0.4,2.7,88,0.00,,,0.02,WUHU216HW,2013-02-22 05:42:00,
2013-02-21 21:47:00,41.4,38.1,29.59,NNW,338,1.1,1.8,88,0.00,,,0.02,WUHU216HW,2013-02-22 05:47:00,
2013-02-21 21:52:00,41.4,38.1,29.59,North,0,0.2,1.3,88,0.00,,,0.02,WUHU216HW,2013-02-22 05:52:00,
2013-02-21 21:57:00,41.4,37.8,29.59,NW,315,0.4,1.3,87,0.00,,,0.02,WUHU216HW,2013-02-22 05:57:00,
2013-02-21 22:02:00,41.4,38.1,29.59,NNW,338,1.8,1.8,88,0.00,,,0.02,WUHU216HW,2013-02-22 06:02:00,
2013-02-21 22:07:00,41.4,37.8,29.59,NNW,338,0.7,1.8,87,0.00,,,0.02,WUHU216HW,2013-02-22 06:07:00,
2013-02-21 22:12:00,41.4,38.1,29.59,NNW,338,1.1,1.8,88,0.00,,,0.02,WUHU216HW,2013-02-22 06:12:00,
2013-02-21 22:17:00,41.4,38.1,29.59,NNW,338,2.0,2.7,88,0.01,,,0.03,WUHU216HW,2013-02-22 06:17:00,
2013-02-21 22:22:00,41.4,38.1,29.59,NW,315,0.7,2.7,88,0.01,,,0.03,WUHU216HW,2013-02-22 06:22:00,
2013-02-21 22:27:00,41.4,38.1,29.59,SW,225,1.1,2.5,88,0.01,,,0.03,WUHU216HW,2013-02-22 06:27:00,
2013-02-21 22:32:00,41.4,38.1,29.59,NNW,338,0.9,2.5,88,0.01,,,0.03,WUHU216HW,2013-02-22 06:32:00,
2013-02-21 22:37:00,41.4,38.4,29.59,West,270,2.2,2.7,89,0.01,,,0.03,WUHU216HW,2013-02-22 06:37:00,
2013-02-21 22:42:00,41.6,38.3,29.59,NNW,338,1.8,3.6,88,0.01,,,0.03,WUHU216HW,2013-02-22 06:42:00,
2013-02-21 22:47:00,41.6,38.3,29.59,WNW,293,1.8,4.0,88,0.01,,,0.03,WUHU216HW,2013-02-22 06:47:00,
2013-02-21 22:52:00,41.8,38.2,29.59,North,0,1.8,4.7,87,0.01,,,0.03,WUHU216HW,2013-02-22 06:52:00,
2013-02-21 22:57:00,41.8,38.2,29.59,NW,315,2.5,4.7,87,0.01,,,0.03,WUHU216HW,2013-02-22 06:57:00,
2013-02-21 23:02:00,41.9,38.4,29.59,NW,315,3.1,3.6,87,0.01,,,0.03,WUHU216HW,2013-02-22 07:02:00,
2013-02-21 23:07:00,41.8,38.2,29.59,WNW,293,1.8,3.6,87,0.01,,,0.03,WUHU216HW,2013-02-22 07:07:00,
2013-02-21 23:12:00,41.9,38.6,29.59,WNW,293,0.7,3.6,88,0.00,,,0.03,WUHU216HW,2013-02-22 07:12:00,
2013-02-21 23:17:00,41.8,38.4,29.59,NW,315,0.9,2.2,88,0.00,,,0.03,WUHU216HW,2013-02-22 07:17:00,
2013-02-21 23:22:00,41.9,38.6,29.59,NW,315,2.2,2.9,88,0.00,,,0.03,WUHU216HW,2013-02-22 07:22:00,
2013-02-21 23:27:00,41.9,38.6,29.58,NNW,338,0.2,2.9,88,0.00,,,0.03,WUHU216HW,2013-02-22 07:27:00,
2013-02-21 23:32:00,41.8,38.4,29.58,North,0,1.8,2.0,88,0.00,,,0.03,WUHU216HW,2013-02-22 07:32:00,
2013-02-21 23:37:00,41.8,38.4,29.58,NNW,338,1.1,2.9,88,0.00,,,0.03,WUHU216HW,2013-02-22 07:37:00,
2013-02-21 23:42:00,41.8,38.4,29.58,NNW,338,1.1,3.4,88,0.00,,,0.03,WUHU216HW,2013-02-22 07:42:00,
2013-02-21 23:47:00,41.9,38.6,29.59,NW,315,0.7,3.4,88,0.00,,,0.03,WUHU216HW,2013-02-22 07:47:00,
2013-02-21 23:52:00,41.9,38.6,29.59,NW,315,0.4,2.9,88,0.00,,,0.03,WUHU216HW,2013-02-22 07:52:00,
2013-02-21 23:57:00,41.9,38.4,29.59,West,270,1.3,3.4,87,0.00,,,0.03,WUHU216HW,2013-02-22 07:57:00,